DW5338 Weather Reports


Display with metric or nautical units.
time (UTC)temp
F
wind
direction
speed
MPH
gust
MPH
rain 1hr
in
rain 24hr
in
rain mn
in
humidity
%
barometer
mb
20260902194040 69 113 6.0 12.0 0.00 0.00 0.00 35 1024.7
20260902193020 69 68 4.0 8.0 0.00 0.00 0.00 35 1024.7
20260902192020 70 113 4.0 11.0 0.00 0.00 0.00 34 1024.8
20260902191021 69 23 5.0 14.0 0.00 0.00 0.00 37 1024.7
20260902190020 69 68 8.0 15.0 0.00 0.00 0.00 36 1024.7
20260902185020 69 45 5.0 15.0 0.00 0.00 0.00 36 1024.7
20260902184015 71 68 5.0 13.0 0.00 0.00 0.00 34 1025.1
20260902183020 72 68 3.0 8.0 0.00 0.00 0.00 32 1025.2
20260902182020 71 248 7.0 12.0 0.00 0.00 0.00 30 1025.2
20260902181021 71 270 10.0 17.0 0.00 0.00 0.00 30 1025.3
20260902180015 71 270 8.0 15.0 0.00 0.00 0.00 33 1025.3
20260902175020 70 248 7.0 15.0 0.00 0.00 0.00 33 1025.5
20260902174015 70 270 8.0 20.0 0.00 0.00 0.00 34 1025.4
20260902173020 69 270 9.0 18.0 0.00 0.00 0.00 34 1025.5
20260902172020 68 270 10.0 17.0 0.00 0.00 0.00 34 1025.5
20260902171015 69 270 9.0 16.0 0.00 0.00 0.00 34 1025.6
20260902170042 69 225 4.0 11.0 0.00 0.00 0.00 35 1026.1
20260902165022 70 203 4.0 10.0 0.00 0.00 0.00 35 1026.3
20260902164022 69 248 3.0 9.0 0.00 0.00 0.00 35 1026.2
20260902163016 68 203 6.0 14.0 0.00 0.00 0.00 35 1026.0
20260902162022 68 270 2.0 9.0 0.00 0.00 0.00 36 1026.2
20260902161022 67 270 8.0 17.0 0.00 0.00 0.00 35 1026.1
20260902160022 68 180 5.0 11.0 0.00 0.00 0.00 35 1026.2
20260902155016 68 248 4.0 11.0 0.00 0.00 0.00 36 1026.2
20260902154017 67 225 8.0 16.0 0.00 0.00 0.00 35 1025.9
20260902153022 67 270 3.0 7.0 0.00 0.00 0.00 35 1025.8
20260902152017 67 225 3.0 11.0 0.00 0.00 0.00 36 1026.1
20260902151016 66 270 5.0 12.0 0.00 0.00 0.00 36 1026.0
20260902150022 65 270 13.0 21.0 0.00 0.00 0.00 37 1025.9
20260902145022 67 203 4.0 12.0 0.00 0.00 0.00 36 1026.1
20260902144016 66 315 4.0 11.0 0.00 0.00 0.00 35 1026.0
20260902143022 65 248 3.0 12.0 0.00 0.00 0.00 36 1025.7
20260902142016 64 225 4.0 12.0 0.00 0.00 0.00 38 1025.7
20260902141022 63 225 4.0 8.0 0.00 0.00 0.00 40 1025.8
20260902140020 62 180 3.0 8.0 0.00 0.00 0.00 40 1025.4
20260902135017 62 248 5.0 10.0 0.00 0.00 0.00 41 1025.4
20260902134057 61 180 4.0 10.0 0.00 0.00 0.00 41 1025.5
20260902133042 61 180 6.0 14.0 0.00 0.00 0.00 42 1025.5
20260902132016 60 225 4.0 10.0 0.00 0.00 0.00 42 1025.3
20260902131022 60 203 3.0 9.0 0.00 0.00 0.00 43 1025.5
20260902130022 59 203 5.0 11.0 0.00 0.00 0.00 44 1025.4
20260902125022 59 180 3.0 5.0 0.00 0.00 0.00 45 1025.3
20260902124042 59 203 5.0 11.0 0.00 0.00 0.00 45 1025.6
20260902123022 59 203 6.0 16.0 0.00 0.00 0.00 45 1025.5
20260902122022 59 225 6.0 13.0 0.00 0.00 0.00 47 1025.4
20260902121022 59 225 6.0 11.0 0.00 0.00 0.00 47 1025.4
20260902120022 59 225 7.0 15.0 0.00 0.00 0.00 48 1025.4
20260902115022 58 225 7.0 14.0 0.00 0.00 0.00 50 1025.4
20260902114042 57 225 6.0 12.0 0.00 0.00 0.00 53 1025.1
20260902113036 56 225 6.0 13.0 0.00 0.00 0.00 55 1025.2
20260902112022 56 225 6.0 11.0 0.00 0.00 0.00 57 1025.2
20260902111102 56 225 4.0 7.0 0.00 0.00 0.00 57 1025.0
20260902110022 56 225 4.0 9.0 0.00 0.00 0.00 56 1025.2
20260902105022 56 203 4.0 8.0 0.00 0.00 0.00 56 1025.3
20260902104022 56 225 4.0 7.0 0.00 0.00 0.00 55 1025.5
20260902103016 57 225 3.0 8.0 0.00 0.00 0.00 54 1025.4
20260902102016 56 225 4.0 8.0 0.00 0.00 0.00 55 1025.6
20260902101022 56 225 4.0 7.0 0.00 0.00 0.00 55 1025.7
20260902100022 56 225 4.0 6.0 0.00 0.00 0.00 55 1025.7
20260902095042 55 225 4.0 9.0 0.00 0.00 0.00 55 1025.6
20260902094022 56 248 5.0 11.0 0.00 0.00 0.00 55 1025.4
20260902093022 55 225 4.0 8.0 0.00 0.00 0.00 56 1025.4
20260902092016 56 225 7.0 12.0 0.00 0.00 0.00 55 1025.6
20260902091022 55 225 7.0 11.0 0.00 0.00 0.00 56 1025.6
20260902090022 55 225 6.0 11.0 0.00 0.00 0.00 56 1025.7
20260902085022 55 225 5.0 9.0 0.00 0.00 0.00 55 1025.7
20260902084022 55 225 5.0 10.0 0.00 0.00 0.00 55 1025.6
20260902083022 55 225 6.0 11.0 0.00 0.00 0.00 57 1025.7
20260902082016 55 225 6.0 9.0 0.00 0.00 0.00 57 1025.7
20260902081022 56 225 6.0 9.0 0.00 0.00 0.00 55 1025.7
20260902080022 56 225 5.0 8.0 0.00 0.00 0.00 54 1025.8
20260902075022 56 225 5.0 9.0 0.00 0.00 0.00 54 1025.8
20260902074021 56 225 5.0 8.0 0.00 0.00 0.00 56 1025.9
20260902073022 56 203 6.0 9.0 0.00 0.00 0.00 54 1025.9
20260902072041 57 225 7.0 11.0 0.00 0.00 0.00 53 1026.1
20260902071016 57 225 6.0 11.0 0.00 0.00 0.00 52 1026.2
20260902070022 57 225 6.0 12.0 0.00 0.00 0.00 52 1026.2
20260902065016 57 225 6.0 10.0 0.00 0.00 0.00 53 1026.3
20260902064036 56 225 6.0 10.0 0.00 0.00 0.00 54 1026.0
20260902063042 56 225 6.0 9.0 0.00 0.00 0.00 55 1026.0
20260902062022 55 203 6.0 9.0 0.00 0.00 0.00 56 1025.9
20260902061021 55 203 5.0 8.0 0.00 0.00 0.00 55 1025.9
20260902060016 55 225 5.0 7.0 0.00 0.00 0.00 56 1026.0
20260902055021 55 203 5.0 7.0 0.00 0.00 0.00 55 1025.9
20260902054021 56 225 4.0 6.0 0.00 0.00 0.00 52 1025.7
20260902053021 57 225 5.0 7.0 0.00 0.00 0.00 51 1025.8
20260902052015 56 225 5.0 9.0 0.00 0.00 0.00 51 1025.7
20260902051021 56 225 6.0 11.0 0.00 0.00 0.00 53 1025.7
20260902050021 56 203 7.0 10.0 0.00 0.00 0.00 53 1025.7
20260902045015 57 203 5.0 7.0 0.00 0.00 0.00 53 1025.8
20260902044015 59 248 3.0 5.0 0.00 0.00 0.00 47 1026.1
20260902043041 59 225 4.0 8.0 0.00 0.00 0.00 48 1026.2
20260902042015 59 225 6.0 10.0 0.00 0.00 0.00 48 1026.3
20260902041021 59 225 4.0 7.0 0.00 0.00 0.00 48 1026.0
20260902040021 59 203 3.0 4.0 0.00 0.00 0.00 48 1026.1
20260902035016 60 203 4.0 5.0 0.00 0.00 0.00 47 1026.0
20260902034021 60 225 2.0 6.0 0.00 0.00 0.00 47 1025.9
20260902033056 60 293 2.0 4.0 0.00 0.00 0.00 48 1025.6
20260902032035 60 203 4.0 6.0 0.00 0.00 0.00 48 1025.7
20260902031021 61 203 3.0 5.0 0.00 0.00 0.00 45 1025.5
20260902030021 62 225 3.0 6.0 0.00 0.01 0.00 44 1025.9
20260902025021 63 225 4.0 6.0 0.00 0.03 0.00 43 1025.7
20260902024016 63 270 3.0 4.0 0.00 0.05 0.00 42 1025.6
20260902023021 64 203 3.0 6.0 0.00 0.07 0.00 41 1025.9
20260902022021 64 225 3.0 8.0 0.00 0.10 0.00 40 1025.7
20260902021021 64 225 3.0 7.0 0.00 0.10 0.00 40 1025.4
20260902020041 64 225 3.0 6.0 0.00 0.10 0.00 39 1025.2
20260902015021 65 248 4.0 9.0 0.00 0.10 0.00 39 1025.4
20260902014055 65 225 3.0 7.0 0.00 0.10 0.00 38 1025.1
20260902013021 66 248 3.0 6.0 0.00 0.10 0.00 38 1025.1
20260902012021 66 248 4.0 7.0 0.00 0.10 0.00 37 1025.0
20260902011021 67 248 4.0 8.0 0.00 0.10 0.00 36 1024.9
20260902010021 67 270 3.0 8.0 0.00 0.10 0.00 35 1024.7
20260902005021 68 270 4.0 8.0 0.00 0.10 0.00 34 1024.9
20260902004015 69 270 7.0 13.0 0.00 0.10 0.00 33 1025.0
20260902003021 69 270 5.0 10.0 0.00 0.10 0.00 34 1025.0
20260902002041 70 270 2.0 5.0 0.00 0.12 0.00 33 1025.2
20260902001035 69 270 5.0 11.0 0.00 0.12 0.00 33 1025.2
20260902000015 69 270 9.0 18.0 0.00 0.13 0.00 32 1025.2
20260901235021 70 270 9.0 17.0 0.00 0.13 0.00 32 1025.1
20260901234016 70 248 5.0 11.0 0.00 0.13 0.00 32 1025.0
20260901233015 70 270 11.0 19.0 0.00 0.13 0.00 32 1025.1
20260901232015 70 270 11.0 24.0 0.00 0.13 0.00 31 1025.1
20260901231016 70 270 9.0 16.0 0.00 0.13 0.00 31 1025.0
20260901230035 70 270 13.0 24.0 0.00 0.13 0.00 31 1025.1
20260901225021 70 270 12.0 20.0 0.00 0.13 0.00 33 1025.1
20260901224015 70 270 10.0 19.0 0.00 0.13 0.00 33 1025.4
20260901223041 70 270 11.0 19.0 0.00 0.13 0.00 34 1025.4
20260901222019 70 270 10.0 21.0 0.00 0.13 0.00 35 1025.4
20260901221021 70 293 14.0 22.0 0.00 0.13 0.00 34 1025.2
20260901220041 72 270 7.0 16.0 0.00 0.13 0.00 32 1025.5
20260901215035 71 270 7.0 20.0 0.00 0.13 0.00 34 1025.8
20260901214021 71 203 7.0 14.0 0.00 0.13 0.00 33 1025.7
20260901213021 71 225 8.0 16.0 0.00 0.13 0.00 34 1026.0
20260901212015 70 203 6.0 13.0 0.00 0.13 0.00 34 1025.8
20260901211020 69 270 8.0 23.0 0.00 0.13 0.00 34 1025.9
20260901210041 70 248 10.0 24.0 0.00 0.13 0.00 33 1026.0
20260901205020 69 225 9.0 20.0 0.00 0.13 0.00 34 1026.0
20260901204020 69 270 9.0 16.0 0.00 0.13 0.00 35 1026.1
20260901203015 68 270 12.0 20.0 0.00 0.13 0.00 34 1025.8
20260901202020 70 270 10.0 18.0 0.00 0.13 0.00 36 1026.0
20260901201041 69 270 6.0 14.0 0.00 0.13 0.00 38 1026.0
20260901200020 68 270 12.0 20.0 0.00 0.13 0.00 39 1026.2
20260901195020 69 270 11.0 25.0 0.00 0.13 0.00 40 1026.2